[[{"header":{"parameterUnit":"m.s-1","parameterCategory":2,"la1":30.2991,"la2":30.254,"lo1":-89.0895,"lo2":-89.0444,"dy":0.0017,"dx":0.0017,"nx":28,"ny":28,"refTime":"2025-05-31T21:00:00:Z","depth":"0","parameterNumber":2,"parameterNumberName":"U-component_of_CURRENTS"},"data":[0,0,0,0,0,0,0,0,0,0,0,0,0,0,0,0,0,0,0,0,0,0,0,0,0,0,0,0,0,0,0,0,0,0,0,0,0,0,0,0,0,0,0,0,0,0,0,0,0,0,0,0,0,0,0,0,0,0,0.2729,0.273,0,0.2744,0.2744,0.2744,0.2734,0.2733,0.2733,0.2733,0.2716,0.2715,0.2715,0,0,0,0,0,0,0,0,0,0,0,0,0,0.2737,0.2736,0.2729,0.273,0.273,0.2743,0.2744,0.2744,0.2734,0.2733,0.2733,0.2732,0.2716,0.2715,0.2715,0,0,0,0,0,0,0,0,0,0,0,0,0,0.274,0.2736,0.2729,0.2727,0.2727,0.2743,0.2744,0.2744,0.2734,0.2733,0.2733,0.2732,0.2716,0.2715,0.2715,0.2727,0,0,0.2715,0.2715,0,0,0,0,0,0,0,0,0.274,0.274,0.2727,0.2727,0.2727,0.2737,0.274,0.2737,0.2734,0.2731,0.2733,0.2732,0.272,0.272,0.2724,0.2726,0.2726,0.2715,0.2715,0.2715,0.2715,0,0,0,0,0,0,0,0.274,0.2739,0.2735,0.2727,0.2727,0.274,0.2739,0.274,0.2728,0.2731,0.273,0.2733,0.272,0.2724,0.2723,0.2725,0.2715,0.2715,0.2715,0.2715,0.2762,0.2763,0,0,0,0,0,0,0.2737,0.2739,0.2734,0.2735,0.2732,0.274,0.2739,0.2734,0.2729,0.2728,0.2733,0.2732,0.2724,0.2723,0.2723,0.2769,0.2715,0.2715,0.2715,0.276,0.2762,0.2763,0,0,0,0,0,0,0.2737,0.2736,0.2734,0.2738,0.2739,0.274,0.2734,0.2734,0.2737,0.2731,0.2729,0.2735,0.2724,0.2723,0.2724,0.2766,0.2715,0.2715,0.2759,0.2761,0.2763,0.284,0,0,0,0,0,0,0.2737,0.2736,0.2734,0.2738,0.2738,0.2739,0.2735,0.2735,0.2739,0.2738,0.2732,0.273,0.2723,0.2724,0.2724,0.2765,0.2715,0.2757,0.276,0.2762,0.2836,0.2844,0.2851,0,0,0,0,0,0.2737,0.2733,0.2734,0.2734,0.2735,0.2739,0.2741,0.274,0.274,0.274,0.274,0.273,0.274,0.2725,0.2724,0.2767,0.2756,0.2759,0.2762,0.2832,0.2842,0.2851,0,0,0,0,0,0,0.2733,0.2732,0.2733,0.2728,0.2733,0.2737,0.2739,0.2742,0.2744,0.2743,0.2737,0.2735,0.2755,0.2745,0.2728,0.2787,0.2751,0.2754,0.2805,0.2814,0.2822,0.286,0.2715,0,0,0,0,0,0.2733,0.2729,0.2733,0.2729,0.2731,0.2738,0.2741,0.2743,0.2744,0.2745,0.2741,0.2747,0.2769,0.2776,0.2778,0.2805,0.2832,0.2834,0.2842,0.2849,0.2879,0.2974,0.2995,0.2773,0.2773,0.2773,0,0,0.2729,0.273,0.2727,0.2729,0.2732,0.2745,0.2738,0.2742,0.2768,0.2743,0.2765,0.2766,0.2778,0.2812,0.2822,0.2809,0.2918,0.2853,0.2859,0.2886,0.298,0.3002,0.3021,0.2775,0.2775,0.2774,0,0,0.2722,0.2722,0.2717,0.2726,0.2734,0.2747,0.2749,0.2755,0.2772,0.2791,0.2795,0.2831,0.2828,0.2874,0.2893,0.2949,0.2951,0.2934,0.3015,0.3106,0.3126,0.3144,0.3176,0.3196,0.2946,0.2946,0.2946,0,0.272,0.2718,0.2718,0.2723,0.2743,0.275,0.2767,0.2789,0.2798,0.2838,0.2802,0.288,0.2877,0.2979,0.2994,0.2974,0.2997,0.2978,0.312,0.3139,0.3156,0.3185,0.3206,0.295,0.295,0.2949,0.2949,0,0.2712,0.2719,0.2719,0.2736,0.2757,0.277,0.2806,0.2835,0.2855,0.2891,0.2972,0.2983,0.3042,0.3047,0.3034,0.3163,0.3127,0.3114,0.3102,0.3184,0.3207,0.3228,0.2956,0.2955,0.2953,0.2952,0,0,0.2688,0.2711,0.2711,0.2734,0.277,0.2788,0.2852,0.2927,0.2994,0.3019,0.3118,0.3169,0.319,0.3215,0.3219,0.3297,0.3416,0.3256,0.3259,0.3298,0.358,0.3399,0.3403,0.3428,0.3432,0.3436,0.3536,0,0.2687,0.2697,0.2725,0.2766,0.278,0.284,0.2905,0.2981,0.3043,0.3133,0.321,0.3281,0.3252,0.3283,0.3366,0.3411,0.3481,0.3388,0.3487,0.349,0.3329,0.3426,0.3232,0.3292,0.3557,0.356,0.3563,0,0.2671,0.2685,0.2709,0.2796,0.2814,0.2851,0.2982,0.3046,0.319,0.3243,0.3354,0.3395,0.3531,0.3472,0.3638,0.3576,0.359,0.3613,0.3617,0.3445,0.335,0.3259,0.332,0.3241,0.3595,0.3593,0.359,0,0.2636,0.2688,0.2712,0.2732,0.2818,0.2873,0.2943,0.3077,0.3168,0.3321,0.3396,0.3545,0.3621,0.3705,0.3735,0.3705,0.3883,0.3849,0.3702,0.3687,0.3541,0.3504,0.3551,0.3971,0.397,0.397,0.397,0,0.262,0.2643,0.2695,0.2702,0.2781,0.2853,0.2972,0.3064,0.3219,0.3341,0.3448,0.3556,0.3686,0.3783,0.38,0.3809,0.3943,0.3744,0.3723,0.3552,0.3517,0.3453,0.342,0.3974,0.3973,0.3972,0.3972,0,0.2569,0.2595,0.2633,0.2717,0.2754,0.281,0.2978,0.3071,0.3209,0.3372,0.3426,0.3609,0.3722,0.3802,0.3929,0.3869,0.3779,0.386,0.361,0.3556,0.3296,0.3272,0.3196,0.3107,0.3733,0.373,0.3727,0,0.254,0.2541,0.2623,0.266,0.2697,0.2798,0.288,0.3043,0.3147,0.3392,0.3465,0.3623,0.3702,0.3796,0.373,0.372,0.3661,0.3511,0.342,0.3277,0.324,0.3144,0.3071,0.3258,0.3251,0.3246,0.3242,0,0.2493,0.2516,0.2545,0.2617,0.269,0.2789,0.2912,0.299,0.319,0.3308,0.346,0.3541,0.3601,0.3493,0.3441,0.3414,0.3312,0.3392,0.3357,0.2965,0.2761,0.2664,0.3165,0.3194,0.3198,0.3202,0.3205,0.3206,0.2461,0.2468,0.2509,0.2578,0.2664,0.275,0.2796,0.2921,0.3044,0.3161,0.3315,0.3323,0.3289,0.3174,0.3129,0.2891,0.2948,0.2777,0.279,0.273,0.2547,0.2892,0.2814,0.2817,0.2819,0.2821,0.2822,0,0.2408,0.2423,0.248,0.2546,0.2604,0.268,0.2794,0.2802,0.2861,0.295,0.3005,0.29,0.2764,0.2719,0.2483,0.2324,0.2259,0.2268,0.215,0.2133,0.2549,0.2428,0.2125,0.2125,0.2126,0.2126,0.2126,0.2126,0.2381,0.2382,0.2402,0.2456,0.251,0.2534,0.2563,0.2569,0.2596,0.2512,0.2417,0.2403,0.2412,0.2253,0.2036,0.1979,0.1873,0.172,0.1801,0.2144,0.2195,0.2243,0.2125,0.1764,0.1763,0.1279,0.1275,0.1273]},{"header":{"parameterUnit":"m.s-1","parameterCategory":2,"la1":30.2991,"la2":30.254,"lo1":-89.0895,"lo2":-89.0444,"dy":0.0017,"dx":0.0017,"nx":28,"ny":28,"refTime":"2025-05-31T21:00:00:Z","depth":"0","parameterNumber":3,"parameterNumberName":"V-component_of_CURRENTS"},"data":[0,0,0,0,0,0,0,0,0,0,0,0,0,0,0,0,0,0,0,0,0,0,0,0,0,0,0,0,0,0,0,0,0,0,0,0,0,0,0,0,0,0,0,0,0,0,0,0,0,0,0,0,0,0,0,0,0,0,0.0101,0.0101,0,0.008,0.008,0.008,0.0064,0.0064,0.0063,0.0063,0.0039,0.0039,0.0038,0,0,0,0,0,0,0,0,0,0,0,0,0,0.0096,0.0096,0.0101,0.0101,0.0101,0.008,0.008,0.008,0.0064,0.0063,0.0063,0.0063,0.004,0.0039,0.0038,0,0,0,0,0,0,0,0,0,0,0,0,0,0.0089,0.0097,0.0102,0.0091,0.009,0.008,0.008,0.0079,0.0064,0.0063,0.0063,0.0063,0.004,0.0039,0.0038,0.0037,0,0,0.0036,0.0035,0,0,0,0,0,0,0,0,0.0089,0.0089,0.0093,0.0092,0.009,0.0075,0.0069,0.0065,0.0064,0.0073,0.0063,0.0063,0.0051,0.005,0.0045,0.0035,0.0034,0.0036,0.0035,0.0035,0.0035,0,0,0,0,0,0,0,0.009,0.009,0.0093,0.0092,0.0091,0.0076,0.0075,0.0068,0.0063,0.0072,0.0071,0.0069,0.0051,0.0046,0.0045,0.0034,0.0036,0.0035,0.0035,0.0034,0.0018,0.0018,0,0,0,0,0,0,0.0095,0.009,0.0093,0.0092,0.009,0.0076,0.0075,0.008,0.0063,0.0061,0.007,0.0069,0.0048,0.0046,0.0044,0.0044,0.0035,0.0034,0.0034,0.0018,0.0018,0.0018,0,0,0,0,0,0,0.0095,0.0096,0.0094,0.009,0.0089,0.0077,0.0082,0.0079,0.0077,0.0061,0.0059,0.0071,0.0048,0.0045,0.0042,0.0043,0.0034,0.0033,0.0018,0.0018,0.0018,0.0042,0,0,0,0,0,0,0.0095,0.0096,0.0101,0.0091,0.009,0.0096,0.0082,0.0079,0.0077,0.0075,0.0061,0.0059,0.0047,0.0043,0.0041,0.0042,0.0032,0.0017,0.0018,0.0018,0.0041,0.0043,0.0045,0,0,0,0,0,0.0095,0.0107,0.0101,0.0101,0.0097,0.0097,0.0095,0.0085,0.0077,0.0081,0.007,0.0059,0.0042,0.0043,0.0041,0.004,0.0017,0.0018,0.0018,0.0041,0.0043,0.0045,0,0,0,0,0,0,0.0107,0.0106,0.01,0.011,0.0106,0.0095,0.0096,0.0089,0.0082,0.0079,0.0063,0.006,0.0057,0.0046,0.0048,0.0035,0.0027,0.0026,0.0045,0.0047,0.0048,0.0065,0.0032,0,0,0,0,0,0.0112,0.012,0.0113,0.0121,0.012,0.0108,0.0106,0.0099,0.0092,0.0089,0.0078,0.0065,0.0055,0.005,0.0041,0.0037,0.0046,0.0033,0.0035,0.0037,0.0048,0.0074,0.0079,0.0018,0.0018,0.0018,0,0,0.0117,0.0118,0.0122,0.0124,0.0118,0.0124,0.0107,0.0107,0.011,0.0087,0.0089,0.0073,0.0056,0.005,0.0047,0.0042,0.0056,0.0037,0.0038,0.0049,0.0075,0.0081,0.0086,0.0018,0.0018,0.0018,0,0,0.0138,0.0134,0.0149,0.0148,0.0144,0.0136,0.0139,0.013,0.0124,0.0123,0.0104,0.0094,0.008,0.0067,0.0058,0.0065,0.0066,0.0055,0.0076,0.0101,0.0106,0.0112,0.0124,0.013,0.0054,0.0054,0.0054,0,0.0145,0.0163,0.0152,0.0165,0.0167,0.0145,0.0159,0.015,0.0141,0.0143,0.0129,0.0116,0.009,0.0092,0.0081,0.0069,0.0083,0.007,0.0105,0.011,0.0115,0.0126,0.0133,0.0055,0.0055,0.0055,0.0055,0,0.0177,0.0188,0.0196,0.0204,0.0204,0.0212,0.0199,0.0197,0.0184,0.0177,0.0179,0.0152,0.0148,0.0128,0.01,0.0116,0.0113,0.0107,0.0104,0.0123,0.0133,0.0139,0.0057,0.0057,0.0056,0.0056,0,0,0.0202,0.0216,0.022,0.0231,0.0226,0.0232,0.0233,0.0236,0.0253,0.0231,0.026,0.0212,0.0203,0.0192,0.0163,0.0165,0.0188,0.0147,0.0147,0.0166,0.0242,0.0209,0.0213,0.0194,0.0196,0.0197,0.0232,0,0.0232,0.0269,0.0262,0.0289,0.0306,0.0285,0.0296,0.0292,0.0288,0.031,0.028,0.0296,0.0227,0.0235,0.0223,0.0213,0.0208,0.0179,0.0215,0.0215,0.0191,0.022,0.0227,0.0257,0.0238,0.0239,0.024,0,0.0268,0.0289,0.0325,0.0343,0.0349,0.0357,0.0376,0.0385,0.0396,0.0399,0.0401,0.0389,0.0385,0.0333,0.0322,0.0311,0.0272,0.0253,0.0255,0.0224,0.0195,0.0235,0.0269,0.0201,0.025,0.0249,0.0249,0,0.0304,0.0332,0.0364,0.0369,0.0385,0.0395,0.0405,0.0415,0.0448,0.0471,0.0516,0.0493,0.0525,0.0475,0.0407,0.0379,0.0405,0.0368,0.0299,0.0296,0.0308,0.0304,0.0289,0.0359,0.0359,0.0359,0.0359,0,0.0343,0.0367,0.0385,0.0402,0.0448,0.044,0.0494,0.0499,0.0545,0.062,0.0575,0.0647,0.0567,0.0562,0.0467,0.0412,0.0455,0.0316,0.0311,0.0313,0.0309,0.0255,0.0199,0.036,0.036,0.036,0.0359,0,0.038,0.0389,0.0429,0.0455,0.0467,0.0502,0.056,0.0611,0.0642,0.0749,0.0773,0.0793,0.0794,0.0692,0.0635,0.0518,0.0403,0.0408,0.0405,0.0397,0.0247,0.0192,0.0161,0.013,0.0347,0.0347,0.0346,0,0.0403,0.0429,0.0475,0.0511,0.0524,0.0577,0.0627,0.0659,0.0732,0.0853,0.0926,0.0956,0.1,0.0885,0.0691,0.0533,0.0427,0.0406,0.0336,0.0252,0.0187,0.0142,0.0115,0.0362,0.0362,0.0362,0.0362,0,0.0446,0.0461,0.0498,0.0576,0.0629,0.0703,0.078,0.0853,0.0931,0.1042,0.1186,0.1233,0.112,0.0985,0.0737,0.06,0.0352,0.0395,0.0328,0.0214,0.0148,0.0113,0.0313,0.036,0.036,0.036,0.036,0.036,0.0479,0.0517,0.057,0.0645,0.0718,0.0827,0.0909,0.1023,0.117,0.1349,0.1372,0.1473,0.1236,0.0913,0.0721,0.0363,0.035,0.0248,0.0195,0.0162,0.011,0.029,0.0311,0.0311,0.0311,0.0311,0.0311,0,0.0518,0.0565,0.0638,0.0733,0.083,0.0859,0.1014,0.1124,0.1326,0.148,0.1606,0.1543,0.1261,0.0929,0.0448,0.0215,0.0124,0.0088,0.004,0.0026,0.0219,0.0196,0.017,0.017,0.017,0.017,0.017,0.017,0.054,0.0612,0.0651,0.0809,0.0888,0.1036,0.1136,0.1317,0.1458,0.1654,0.1714,0.1727,0.1473,0.0676,0.0174,0.0055,-0.008,-0.0136,-0.0193,-0.0056,-0.0045,-0.0034,-0.0066,-0.0147,-0.0148,-0.0348,-0.035,-0.0352]}],[{"header":{"parameterUnit":"m.s-1","parameterCategory":2,"la1":30.2991,"la2":30.254,"lo1":-89.0895,"lo2":-89.0444,"dy":0.0017,"dx":0.0017,"nx":28,"ny":28,"refTime":"2025-05-31T21:00:00:Z","depth":"2","parameterNumber":2,"parameterNumberName":"U-component_of_CURRENTS"},"data":[0,0,0,0,0,0,0,0,0,0,0,0,0,0,0,0,0,0,0,0,0,0,0,0,0,0,0,0,0,0,0,0,0,0,0,0,0,0,0,0,0,0,0,0,0,0,0,0,0,0,0,0,0,0,0,0,0,0,0.2163,0.2163,0,0.2152,0.2152,0.2152,0.2139,0.2139,0.2139,0.2139,0.2137,0.2137,0.2137,0,0,0,0,0,0,0,0,0,0,0,0,0,0.2165,0.2165,0.2163,0.2163,0.2164,0.2153,0.2152,0.2152,0.2139,0.2139,0.2139,0.2139,0.2137,0.2137,0.2137,0,0,0,0,0,0,0,0,0,0,0,0,0,0.2157,0.2165,0.2163,0.2158,0.2158,0.2153,0.2152,0.2151,0.2139,0.2139,0.2139,0.2139,0.2137,0.2137,0.2137,0.2132,0,0,0.2136,0.2136,0,0,0,0,0,0,0,0,0.2157,0.2156,0.2159,0.2159,0.2158,0.215,0.2152,0.2147,0.2139,0.2142,0.2139,0.2139,0.2145,0.2144,0.2136,0.2132,0.2132,0.2136,0.2136,0.2136,0.2136,0,0,0,0,0,0,0,0.2158,0.2157,0.2155,0.2159,0.2159,0.2155,0.2153,0.2151,0.214,0.2142,0.2142,0.2146,0.2144,0.2136,0.2136,0.2132,0.2136,0.2136,0.2136,0.2136,0.216,0.2161,0,0,0,0,0,0,0.2167,0.2157,0.2156,0.2155,0.2162,0.2155,0.2153,0.215,0.214,0.214,0.2146,0.2146,0.2137,0.2137,0.2136,0.2178,0.2136,0.2136,0.2136,0.2159,0.216,0.2161,0,0,0,0,0,0,0.2166,0.2166,0.2156,0.2159,0.2158,0.2155,0.2151,0.215,0.2155,0.2144,0.2143,0.2156,0.2137,0.2137,0.2146,0.2176,0.2136,0.2135,0.2158,0.2159,0.2161,0.223,0,0,0,0,0,0,0.2166,0.2166,0.217,0.216,0.2159,0.2159,0.2151,0.2149,0.2159,0.2158,0.2151,0.215,0.2137,0.2146,0.2145,0.2175,0.2135,0.2157,0.2159,0.216,0.2227,0.2233,0.2239,0,0,0,0,0,0.2166,0.2168,0.217,0.217,0.2162,0.216,0.2159,0.2154,0.2159,0.216,0.216,0.2151,0.2155,0.2146,0.2145,0.2175,0.2156,0.2158,0.216,0.2224,0.2232,0.2239,0,0,0,0,0,0,0.2169,0.2167,0.2168,0.217,0.217,0.2159,0.2163,0.2165,0.2164,0.2169,0.2158,0.2157,0.2175,0.2163,0.2154,0.2185,0.2156,0.2157,0.2204,0.2212,0.2218,0.2249,0.2135,0,0,0,0,0,0.2174,0.2175,0.2173,0.2175,0.2178,0.2175,0.2176,0.2176,0.2174,0.2175,0.2173,0.2173,0.2179,0.2186,0.218,0.2199,0.222,0.2218,0.2224,0.2229,0.2253,0.2316,0.2331,0.2167,0.2167,0.2167,0,0,0.2175,0.2176,0.2176,0.2177,0.2176,0.2182,0.2175,0.2182,0.2196,0.2176,0.2195,0.2192,0.2187,0.2206,0.2214,0.2203,0.2283,0.2232,0.2237,0.2257,0.232,0.2336,0.2351,0.2168,0.2168,0.2168,0,0,0.2177,0.2181,0.2182,0.2187,0.2195,0.2195,0.2203,0.2203,0.2214,0.2231,0.2224,0.2251,0.2245,0.2261,0.2266,0.2306,0.231,0.2293,0.2359,0.242,0.2435,0.2448,0.2485,0.2501,0.2303,0.2303,0.2303,0,0.2181,0.2182,0.2183,0.219,0.2201,0.2205,0.2216,0.2227,0.2233,0.2261,0.2246,0.229,0.2281,0.2335,0.2344,0.2326,0.2348,0.2332,0.2431,0.2445,0.2458,0.2492,0.251,0.2307,0.2306,0.2306,0.2306,0,0.2182,0.2189,0.2193,0.2205,0.2217,0.2226,0.2246,0.2269,0.2289,0.2309,0.2368,0.237,0.2405,0.2403,0.2385,0.2469,0.245,0.2429,0.2419,0.2479,0.2511,0.2527,0.2312,0.2311,0.2309,0.2309,0,0,0.217,0.219,0.2191,0.2204,0.2228,0.2236,0.228,0.2324,0.2371,0.2399,0.247,0.2495,0.2516,0.2524,0.2517,0.2572,0.2667,0.2541,0.2543,0.259,0.2792,0.2643,0.2646,0.2665,0.2668,0.2671,0.2776,0,0.2171,0.2182,0.22,0.2224,0.2232,0.227,0.2312,0.2362,0.2407,0.2473,0.2528,0.2583,0.2555,0.2586,0.2637,0.2666,0.2716,0.264,0.2717,0.272,0.259,0.2662,0.243,0.2492,0.2792,0.2795,0.2797,0,0.2163,0.2173,0.2191,0.2241,0.2252,0.2277,0.2361,0.2401,0.2504,0.2548,0.2633,0.267,0.2772,0.2726,0.2845,0.2798,0.2803,0.2819,0.2823,0.2677,0.2602,0.2481,0.2511,0.2824,0.2822,0.282,0.2818,0,0.2137,0.2171,0.2186,0.2198,0.2252,0.2291,0.2336,0.2429,0.2492,0.2612,0.2684,0.2787,0.2851,0.2912,0.2931,0.291,0.3036,0.301,0.2883,0.2872,0.2686,0.2651,0.309,0.3089,0.3089,0.3089,0.3089,0,0.2122,0.2135,0.2177,0.2181,0.2233,0.228,0.2358,0.2426,0.2542,0.262,0.2725,0.2799,0.2902,0.2972,0.2984,0.2979,0.3083,0.2918,0.2901,0.2697,0.2664,0.2956,0.294,0.3093,0.3092,0.3091,0.3091,0,0.2085,0.2107,0.213,0.2189,0.2216,0.2254,0.2369,0.2426,0.2548,0.2658,0.2713,0.2849,0.293,0.2997,0.308,0.3027,0.3051,0.3006,0.2742,0.269,0.2841,0.2826,0.2927,0.2923,0.2919,0.2916,0.2914,0,0.2063,0.2066,0.2125,0.2147,0.2174,0.2242,0.2291,0.2414,0.2475,0.2663,0.2707,0.2839,0.2863,0.2934,0.2888,0.2893,0.2967,0.2655,0.2567,0.2857,0.2831,0.2822,0.2812,0.2357,0.2351,0.2345,0.2341,0,0.2024,0.2047,0.2063,0.2107,0.2152,0.2202,0.2278,0.2325,0.246,0.254,0.2621,0.2667,0.2727,0.2601,0.2588,0.2559,0.2643,0.2537,0.2949,0.2407,0.2321,0.2294,0.2304,0.2291,0.2296,0.23,0.2302,0.2304,0.1997,0.1999,0.2023,0.2058,0.2105,0.2125,0.2132,0.2189,0.2237,0.2306,0.2425,0.2403,0.2424,0.2276,0.2198,0.2144,0.2332,0.2232,0.225,0.2274,0.2162,0.2071,0.1974,0.1977,0.1979,0.1982,0.1984,0,0.1947,0.195,0.1974,0.1996,0.1999,0.206,0.2091,0.2045,0.201,0.2085,0.2107,0.1925,0.1827,0.1868,0.1697,0.1674,0.1676,0.161,0.1604,0.1654,0.1698,0.1557,0.1209,0.1207,0.1205,0.1203,0,0,0.192,0.1901,0.1899,0.1869,0.1891,0.1845,0.1829,0.1761,0.1756,0.1671,0.1642,0.1774,0.1816,0.1504,0.1447,0.13,0.1474,0.1245,0.1868,0.1913,0.1955,0.2057,0.1895,0,0,0,0,0]},{"header":{"parameterUnit":"m.s-1","parameterCategory":2,"la1":30.2991,"la2":30.254,"lo1":-89.0895,"lo2":-89.0444,"dy":0.0017,"dx":0.0017,"nx":28,"ny":28,"refTime":"2025-05-31T21:00:00:Z","depth":"2","parameterNumber":3,"parameterNumberName":"V-component_of_CURRENTS"},"data":[0,0,0,0,0,0,0,0,0,0,0,0,0,0,0,0,0,0,0,0,0,0,0,0,0,0,0,0,0,0,0,0,0,0,0,0,0,0,0,0,0,0,0,0,0,0,0,0,0,0,0,0,0,0,0,0,0,0,0.0167,0.0167,0,0.015,0.015,0.015,0.0142,0.0142,0.0142,0.0142,0.0124,0.0123,0.0123,0,0,0,0,0,0,0,0,0,0,0,0,0,0.0166,0.0166,0.0167,0.0167,0.0167,0.015,0.015,0.015,0.0142,0.0142,0.0142,0.0142,0.0124,0.0123,0.0123,0,0,0,0,0,0,0,0,0,0,0,0,0,0.016,0.0166,0.0167,0.016,0.016,0.015,0.015,0.015,0.0142,0.0142,0.0142,0.0142,0.0124,0.0123,0.0123,0.0119,0,0,0.0121,0.012,0,0,0,0,0,0,0,0,0.016,0.016,0.0162,0.0161,0.016,0.0148,0.0143,0.0139,0.0142,0.0149,0.0142,0.0141,0.0131,0.013,0.0128,0.0119,0.0118,0.0121,0.012,0.012,0.012,0,0,0,0,0,0,0,0.0161,0.0161,0.0161,0.0161,0.016,0.0149,0.0148,0.0142,0.0141,0.0148,0.0147,0.0145,0.0131,0.0128,0.0127,0.0118,0.0121,0.012,0.012,0.0119,0.0107,0.0107,0,0,0,0,0,0,0.0164,0.0161,0.0161,0.016,0.016,0.0149,0.0148,0.0152,0.0141,0.0139,0.0145,0.0145,0.0129,0.0128,0.0126,0.0131,0.012,0.0119,0.0119,0.0107,0.0107,0.0107,0,0,0,0,0,0,0.0164,0.0164,0.0162,0.016,0.0158,0.0149,0.0153,0.0152,0.015,0.0138,0.0137,0.0146,0.0129,0.0127,0.0124,0.013,0.0119,0.0118,0.0107,0.0107,0.0107,0.0135,0,0,0,0,0,0,0.0164,0.0164,0.0168,0.016,0.0159,0.0162,0.0153,0.0151,0.0149,0.0148,0.0138,0.0137,0.0129,0.0125,0.0124,0.0129,0.0118,0.0107,0.0107,0.0107,0.0134,0.0136,0.0138,0,0,0,0,0,0.0164,0.0172,0.0169,0.0168,0.0164,0.0162,0.0161,0.0154,0.0149,0.0152,0.0144,0.0137,0.0125,0.0125,0.0123,0.0128,0.0107,0.0107,0.0107,0.0133,0.0135,0.0138,0,0,0,0,0,0,0.0174,0.0172,0.0168,0.0175,0.017,0.0161,0.0162,0.0156,0.0152,0.015,0.0139,0.0137,0.0136,0.0127,0.0127,0.0124,0.0114,0.0114,0.0135,0.0137,0.0139,0.0155,0.0117,0,0,0,0,0,0.0177,0.0184,0.0177,0.0182,0.018,0.0171,0.0168,0.0164,0.0158,0.0156,0.0148,0.0139,0.0135,0.0132,0.0126,0.0124,0.0123,0.0125,0.0127,0.0129,0.014,0.015,0.0154,0.0108,0.0108,0.0108,0,0,0.0181,0.0182,0.0184,0.0185,0.018,0.0185,0.017,0.0169,0.0175,0.0154,0.0159,0.0147,0.0136,0.0136,0.0134,0.0129,0.0138,0.0129,0.0131,0.0141,0.015,0.0155,0.0159,0.0108,0.0108,0.0108,0,0,0.0197,0.0194,0.0205,0.0203,0.0199,0.0194,0.0195,0.0187,0.0185,0.0185,0.0173,0.0167,0.0156,0.0153,0.0149,0.0157,0.0149,0.015,0.0173,0.0182,0.0186,0.019,0.0181,0.0184,0.015,0.015,0.015,0,0.0202,0.0217,0.0207,0.0216,0.022,0.0201,0.0214,0.0209,0.0201,0.0209,0.0191,0.0188,0.0168,0.0181,0.0175,0.0163,0.0161,0.0166,0.0186,0.0189,0.0193,0.0183,0.0186,0.0151,0.0151,0.0151,0.0151,0,0.0226,0.0237,0.0243,0.0252,0.0252,0.0259,0.0251,0.0254,0.0246,0.0243,0.0252,0.0227,0.0231,0.0214,0.0192,0.0207,0.0194,0.0189,0.0183,0.02,0.0188,0.019,0.0153,0.0153,0.0152,0.0152,0,0,0.0246,0.0259,0.0262,0.0277,0.0273,0.0281,0.029,0.0302,0.0327,0.0304,0.0338,0.0302,0.0291,0.0286,0.0261,0.0254,0.0255,0.0228,0.0227,0.0225,0.0265,0.0233,0.0232,0.0255,0.0256,0.0257,0.0242,0,0.0271,0.0304,0.03,0.033,0.0347,0.0337,0.0355,0.0361,0.0364,0.039,0.0365,0.0383,0.0319,0.0328,0.0307,0.0281,0.0265,0.0259,0.0245,0.0244,0.0219,0.0235,0.0238,0.0224,0.0245,0.0245,0.0245,0,0.0301,0.0321,0.0355,0.0386,0.0393,0.0405,0.0443,0.0459,0.0481,0.0488,0.0492,0.0478,0.0466,0.0414,0.0369,0.037,0.0316,0.0283,0.0282,0.0248,0.0217,0.0213,0.0228,0.0249,0.0249,0.0249,0.0248,0,0.0331,0.0363,0.0395,0.0402,0.0429,0.0447,0.0466,0.049,0.0534,0.0561,0.0603,0.0572,0.0584,0.0518,0.0424,0.0407,0.0376,0.0349,0.0267,0.0264,0.0262,0.0257,0.0318,0.0318,0.0318,0.0318,0.0318,0,0.0365,0.0392,0.0414,0.0431,0.0486,0.0487,0.0556,0.057,0.0626,0.0702,0.0661,0.0713,0.0612,0.0577,0.0472,0.0378,0.0412,0.0279,0.0265,0.0268,0.0264,0.0285,0.0282,0.0318,0.0318,0.0318,0.0318,0,0.0395,0.0406,0.0449,0.0483,0.05,0.0542,0.0623,0.0686,0.072,0.0823,0.0843,0.0835,0.0783,0.0666,0.0566,0.0455,0.0361,0.0314,0.0311,0.0297,0.0227,0.0225,0.0233,0.0232,0.0231,0.0231,0.023,0,0.0414,0.0438,0.0491,0.0531,0.0548,0.0615,0.0678,0.073,0.0811,0.0903,0.0967,0.0943,0.0935,0.0761,0.0571,0.0394,0.0362,0.0269,0.0229,0.0237,0.0222,0.0222,0.0221,0.0232,0.0231,0.0231,0.023,0,0.0451,0.0467,0.0505,0.0588,0.0652,0.0745,0.0836,0.0915,0.1,0.1074,0.1157,0.1151,0.0988,0.0807,0.0552,0.0422,0.0295,0.0252,0.0289,0.0247,0.0233,0.0219,0.0219,0.0226,0.0227,0.0227,0.0227,0.0227,0.0481,0.0518,0.0571,0.0653,0.0738,0.0862,0.0954,0.1057,0.1179,0.1289,0.1277,0.1255,0.1055,0.072,0.0504,0.0266,0.028,0.0181,0.0184,0.0187,0.0185,0.0169,0.0149,0.0149,0.0149,0.0149,0.0149,0,0.0518,0.0564,0.0639,0.0742,0.085,0.089,0.1057,0.1149,0.1286,0.1348,0.1389,0.1181,0.0974,0.0735,0.0389,0.0187,0.0168,0.0106,0.0134,0.014,0.0144,0.014,0.0091,0.0091,0.009,0.009,0,0,0.0539,0.0609,0.0648,0.0815,0.0902,0.106,0.1162,0.1278,0.1352,0.1395,0.1368,0.1322,0.1039,0.0777,0.0502,0.03,0.0262,0.0248,0.0315,0.0386,0.0393,0.0206,0.0208,0,0,0,0,0]}],[{"header":{"parameterUnit":"m.s-1","parameterCategory":2,"la1":30.2991,"la2":30.254,"lo1":-89.0895,"lo2":-89.0444,"dy":0.0017,"dx":0.0017,"nx":28,"ny":28,"refTime":"2025-05-31T21:00:00:Z","depth":"4","parameterNumber":2,"parameterNumberName":"U-component_of_CURRENTS"},"data":[0,0,0,0,0,0,0,0,0,0,0,0,0,0,0,0,0,0,0,0,0,0,0,0,0,0,0,0,0,0,0,0,0,0,0,0,0,0,0,0,0,0,0,0,0,0,0,0,0,0,0,0,0,0,0,0,0,0,0.1281,0.1282,0,0.1289,0.1289,0.1289,0.131,0.1311,0.1312,0.1313,0.1315,0.1314,0.1314,0,0,0,0,0,0,0,0,0,0,0,0,0,0.1259,0.126,0.1281,0.1282,0.1282,0.1289,0.1289,0.1289,0.131,0.1311,0.1312,0.1313,0.1315,0.1314,0.1314,0,0,0,0,0,0,0,0,0,0,0,0,0,0.1266,0.126,0.1281,0.1296,0.1297,0.1289,0.1289,0.1288,0.131,0.1311,0.1312,0.1313,0.1315,0.1315,0.1314,0.1286,0,0,0.1311,0.131,0,0,0,0,0,0,0,0,0.1265,0.1266,0.1293,0.1295,0.1296,0.1302,0.1282,0.1288,0.131,0.1302,0.1313,0.1314,0.1311,0.1311,0.1306,0.1287,0.1287,0.1311,0.131,0.131,0.131,0,0,0,0,0,0,0,0.1265,0.1266,0.1282,0.1294,0.1296,0.1293,0.1295,0.1283,0.1298,0.1303,0.1305,0.131,0.1312,0.1307,0.1306,0.1287,0.1311,0.131,0.1309,0.1309,0.1327,0.1328,0,0,0,0,0,0,0.1269,0.1265,0.1282,0.1282,0.1286,0.1293,0.1295,0.1297,0.1299,0.1301,0.1309,0.1311,0.1308,0.1307,0.1306,0.1352,0.131,0.1309,0.1308,0.1326,0.1327,0.1328,0,0,0,0,0,0,0.1269,0.1271,0.1281,0.1276,0.1278,0.1292,0.1294,0.1297,0.1322,0.1304,0.1306,0.1337,0.1309,0.1308,0.1323,0.1349,0.1309,0.1308,0.1325,0.1326,0.1328,0.1393,0,0,0,0,0,0,0.1268,0.127,0.1287,0.1276,0.1278,0.1296,0.1294,0.1296,0.1323,0.1326,0.1327,0.1327,0.1309,0.1324,0.1322,0.1347,0.1307,0.1323,0.1325,0.1327,0.1389,0.1396,0.1402,0,0,0,0,0,0.1267,0.128,0.1288,0.1291,0.1296,0.1297,0.1298,0.1309,0.1324,0.1336,0.1341,0.1328,0.1335,0.1324,0.1321,0.1347,0.1323,0.1325,0.1327,0.1386,0.1395,0.1402,0,0,0,0,0,0,0.128,0.1284,0.1291,0.1306,0.1313,0.1302,0.1321,0.1327,0.1339,0.1354,0.1337,0.1336,0.1361,0.1343,0.1332,0.1358,0.1328,0.133,0.1374,0.1382,0.1388,0.1383,0.1306,0,0,0,0,0,0.129,0.1304,0.1303,0.132,0.1327,0.133,0.1339,0.1347,0.135,0.1359,0.136,0.1361,0.1361,0.1365,0.1361,0.137,0.1377,0.1387,0.1393,0.1399,0.1392,0.1449,0.146,0.1336,0.1336,0.1336,0,0,0.13,0.1306,0.1315,0.1325,0.1333,0.1338,0.1339,0.1361,0.1367,0.1355,0.1378,0.1387,0.137,0.1385,0.1395,0.1378,0.1437,0.1402,0.1407,0.1397,0.1452,0.1465,0.1476,0.1337,0.1337,0.1337,0,0,0.1316,0.1335,0.1349,0.1356,0.1376,0.137,0.1384,0.1392,0.1404,0.1419,0.1419,0.1439,0.1439,0.1432,0.1426,0.1462,0.1472,0.1477,0.1502,0.1558,0.1569,0.1579,0.1603,0.1614,0.1477,0.1478,0.1478,0,0.1333,0.1343,0.1354,0.1367,0.1372,0.1387,0.1395,0.1402,0.1416,0.1428,0.1437,0.146,0.1452,0.1463,0.1481,0.1476,0.1511,0.1475,0.1568,0.1578,0.1587,0.1609,0.1621,0.1481,0.1481,0.148,0.148,0,0.1345,0.1364,0.1376,0.139,0.1398,0.1412,0.1415,0.1436,0.1455,0.1465,0.1502,0.15,0.1513,0.1522,0.1511,0.1569,0.1576,0.1575,0.1551,0.1603,0.1623,0.1634,0.1486,0.1485,0.1484,0.1483,0,0,0.1345,0.1377,0.1384,0.1387,0.1411,0.1407,0.1431,0.1443,0.1462,0.1496,0.1529,0.1537,0.1566,0.156,0.1566,0.161,0.17,0.1631,0.1633,0.1658,0.1828,0.1689,0.1688,0.1744,0.1746,0.1748,0.1817,0,0.1352,0.1373,0.1386,0.1396,0.14,0.1417,0.1431,0.1453,0.1476,0.1517,0.1545,0.1584,0.1571,0.1604,0.1645,0.1691,0.1734,0.168,0.1768,0.177,0.1644,0.1697,0.1755,0.1825,0.1827,0.1829,0.183,0,0.1349,0.1362,0.1382,0.1389,0.1394,0.1407,0.1426,0.1443,0.1504,0.1536,0.1588,0.1624,0.1684,0.1681,0.1772,0.1755,0.1796,0.1825,0.1829,0.168,0.1651,0.1761,0.185,0.1848,0.1847,0.1846,0.1844,0,0.1322,0.1347,0.136,0.1367,0.139,0.1404,0.1419,0.1463,0.1491,0.1573,0.1622,0.1683,0.1744,0.1805,0.1851,0.1845,0.1958,0.1948,0.1852,0.1842,0.1918,0.1907,0.2022,0.2022,0.2022,0.2022,0.2022,0,0.1299,0.1308,0.1355,0.1359,0.1371,0.1398,0.1425,0.1453,0.1529,0.157,0.1646,0.1689,0.1794,0.1859,0.1888,0.189,0.1985,0.1856,0.1854,0.1942,0.1933,0.1926,0.1914,0.2025,0.2024,0.2023,0.2023,0,0.1263,0.1299,0.1314,0.1352,0.1363,0.1379,0.1432,0.1447,0.1535,0.1598,0.1643,0.1745,0.182,0.1882,0.1983,0.1923,0.1946,0.1927,0.2005,0.2007,0.1784,0.1774,0.182,0.1816,0.1812,0.1809,0.1806,0,0.1239,0.1253,0.1309,0.1312,0.1332,0.1363,0.1376,0.1452,0.1473,0.1602,0.1626,0.1748,0.1797,0.1814,0.189,0.1918,0.1901,0.1885,0.1831,0.1771,0.1766,0.1762,0.1758,0.1801,0.18,0.1799,0.1798,0,0.1194,0.1241,0.1255,0.1271,0.1286,0.1288,0.1319,0.1338,0.1425,0.1532,0.1574,0.1615,0.1692,0.1741,0.1778,0.1794,0.1874,0.1847,0.1854,0.1804,0.1748,0.1746,0.1746,0.1786,0.1787,0.1788,0.1789,0,0.1167,0.1174,0.1205,0.12,0.1218,0.1188,0.1216,0.1234,0.128,0.1427,0.1443,0.1561,0.1678,0.1678,0.1709,0.1711,0.1687,0.1618,0.1636,0.1651,0.1561,0.1463,0.1414,0,0,0,0,0,0.1127,0.1116,0.1112,0.1091,0.1102,0.1107,0.1154,0.119,0.1299,0.1292,0.1362,0.1423,0.1471,0.1536,0.1507,0.1631,0.1688,0.1586,0.1616,0.1717,0.1731,0.1639,0,0,0,0,0,0,0.1095,0.1105,0.1089,0.0998,0.0964,0.0954,0.0985,0.1052,0.1053,0.1185,0.1228,0.1327,0.1407,0.1483,0.1481,0.1499,0.1482,0.1667,0.1663,0.1708,0.1722,0.1733,0.1643,0,0,0,0,0]},{"header":{"parameterUnit":"m.s-1","parameterCategory":2,"la1":30.2991,"la2":30.254,"lo1":-89.0895,"lo2":-89.0444,"dy":0.0017,"dx":0.0017,"nx":28,"ny":28,"refTime":"2025-05-31T21:00:00:Z","depth":"4","parameterNumber":3,"parameterNumberName":"V-component_of_CURRENTS"},"data":[0,0,0,0,0,0,0,0,0,0,0,0,0,0,0,0,0,0,0,0,0,0,0,0,0,0,0,0,0,0,0,0,0,0,0,0,0,0,0,0,0,0,0,0,0,0,0,0,0,0,0,0,0,0,0,0,0,0,0.0163,0.0163,0,0.0155,0.0155,0.0155,0.0158,0.0158,0.0158,0.0158,0.016,0.016,0.0159,0,0,0,0,0,0,0,0,0,0,0,0,0,0.016,0.0161,0.0163,0.0163,0.0162,0.0155,0.0155,0.0155,0.0158,0.0158,0.0158,0.0158,0.016,0.016,0.0159,0,0,0,0,0,0,0,0,0,0,0,0,0,0.0158,0.0161,0.0163,0.0163,0.0163,0.0155,0.0155,0.0155,0.0158,0.0158,0.0158,0.0159,0.016,0.016,0.0159,0.0154,0,0,0.0159,0.0159,0,0,0,0,0,0,0,0,0.0158,0.0158,0.0163,0.0163,0.0163,0.0157,0.0154,0.0155,0.0158,0.016,0.0158,0.0159,0.0159,0.0159,0.0158,0.0154,0.0154,0.0159,0.0159,0.0159,0.0159,0,0,0,0,0,0,0,0.0159,0.0159,0.016,0.0163,0.0163,0.0156,0.0156,0.0154,0.0159,0.016,0.016,0.0159,0.0159,0.0158,0.0158,0.0154,0.0159,0.0159,0.0159,0.0159,0.0163,0.0163,0,0,0,0,0,0,0.016,0.0159,0.016,0.016,0.0161,0.0156,0.0156,0.0159,0.0159,0.0159,0.0158,0.0159,0.0158,0.0158,0.0158,0.0174,0.0159,0.0159,0.0159,0.0163,0.0163,0.0163,0,0,0,0,0,0,0.016,0.016,0.0161,0.0158,0.0158,0.0156,0.0159,0.0159,0.0161,0.0157,0.0158,0.0162,0.0158,0.0158,0.016,0.0173,0.0159,0.0158,0.0162,0.0163,0.0163,0.0191,0,0,0,0,0,0,0.016,0.016,0.0164,0.0159,0.0158,0.0161,0.0159,0.0158,0.016,0.016,0.016,0.016,0.0158,0.0161,0.016,0.0172,0.0158,0.0162,0.0162,0.0163,0.0189,0.0192,0.0194,0,0,0,0,0,0.016,0.0165,0.0164,0.0164,0.0163,0.0161,0.016,0.0159,0.016,0.0162,0.0162,0.0161,0.0163,0.016,0.016,0.0172,0.0162,0.0162,0.0163,0.0188,0.0191,0.0194,0,0,0,0,0,0,0.0166,0.0166,0.0165,0.017,0.0167,0.0161,0.0163,0.0161,0.0163,0.0164,0.0161,0.0161,0.0169,0.0164,0.0161,0.0174,0.0163,0.0163,0.0183,0.0185,0.0187,0.0202,0.0158,0,0,0,0,0,0.0169,0.0174,0.0169,0.0174,0.0173,0.0168,0.0168,0.0167,0.0165,0.0166,0.0166,0.0166,0.0169,0.0172,0.017,0.0176,0.0163,0.0184,0.0186,0.0188,0.0199,0.0185,0.0187,0.0165,0.0165,0.0165,0,0,0.0172,0.0173,0.0175,0.0176,0.0174,0.0178,0.0169,0.017,0.018,0.0166,0.0179,0.0173,0.0171,0.0179,0.0182,0.0178,0.0184,0.0189,0.019,0.0201,0.0186,0.0188,0.019,0.0165,0.0165,0.0165,0,0,0.0182,0.0182,0.019,0.0189,0.0188,0.0186,0.0188,0.0184,0.0189,0.0195,0.0191,0.0194,0.0193,0.0199,0.0201,0.0214,0.0195,0.021,0.0237,0.0223,0.0225,0.0227,0.02,0.0198,0.0214,0.0214,0.0214,0,0.0186,0.0197,0.0191,0.0198,0.0204,0.0192,0.0205,0.0206,0.0205,0.0217,0.0204,0.0213,0.0207,0.0228,0.0231,0.0222,0.0202,0.0228,0.0227,0.0228,0.0229,0.0201,0.0199,0.0215,0.0215,0.0215,0.0215,0,0.0201,0.0212,0.0216,0.0225,0.023,0.0237,0.0238,0.0247,0.0249,0.0251,0.0267,0.0254,0.0263,0.0258,0.0248,0.0259,0.0238,0.0229,0.0221,0.0233,0.0202,0.02,0.0217,0.0217,0.0216,0.0216,0,0,0.0212,0.0225,0.0229,0.0244,0.0247,0.0256,0.0276,0.0296,0.0322,0.031,0.0338,0.0332,0.0322,0.0323,0.0309,0.0296,0.0277,0.0267,0.0265,0.0242,0.0232,0.0215,0.021,0.0264,0.0264,0.0264,0.0202,0,0.0229,0.0255,0.0257,0.0288,0.0302,0.0307,0.0333,0.0349,0.0357,0.0378,0.0366,0.0381,0.0347,0.0353,0.0333,0.0295,0.0275,0.0294,0.0222,0.022,0.0206,0.0209,0.0264,0.02,0.02,0.02,0.0199,0,0.0248,0.0265,0.0296,0.0335,0.0344,0.0361,0.0409,0.0432,0.0454,0.0462,0.0465,0.0448,0.0436,0.0402,0.0339,0.0349,0.0296,0.0258,0.0255,0.0232,0.02,0.0188,0.0195,0.0196,0.0196,0.0196,0.0196,0,0.0266,0.0298,0.0329,0.0338,0.0373,0.04,0.0428,0.046,0.0501,0.0517,0.0534,0.0507,0.0499,0.0433,0.0346,0.0341,0.0265,0.0249,0.0184,0.0181,0.0203,0.0202,0.0208,0.0208,0.0208,0.0208,0.0208,0,0.0286,0.0313,0.0343,0.0358,0.0416,0.0431,0.0498,0.0521,0.0566,0.0612,0.0579,0.0593,0.0506,0.0449,0.0363,0.0263,0.0274,0.0192,0.0169,0.0213,0.0214,0.02,0.02,0.0206,0.0206,0.0207,0.0207,0,0.03,0.0316,0.0357,0.0401,0.0423,0.0467,0.055,0.0603,0.0629,0.0684,0.0692,0.0661,0.0584,0.0484,0.0374,0.0292,0.0197,0.016,0.0207,0.0188,0.0115,0.0118,0.0083,0.0082,0.0081,0.008,0.008,0,0.0309,0.033,0.0389,0.0426,0.0449,0.0519,0.0579,0.0635,0.069,0.0722,0.0748,0.0695,0.0653,0.0482,0.0371,0.0206,0.0182,0.012,0.0125,0.0124,0.0105,0.0109,0.0112,0.0078,0.0078,0.0078,0.0078,0,0.0327,0.0348,0.0384,0.0457,0.0519,0.0602,0.0681,0.0723,0.0784,0.0801,0.0793,0.0708,0.062,0.0486,0.0358,0.0239,0.0153,0.0111,0.0112,0.0116,0.0118,0.0101,0.0105,0.0075,0.0075,0.0076,0.0076,0,0.0344,0.0374,0.0422,0.049,0.0572,0.0658,0.0701,0.0759,0.0813,0.0835,0.0827,0.0729,0.0677,0.0503,0.0385,0.0267,0.0234,0.0182,0.0179,0.018,0.0225,0.0243,0.0224,0,0,0,0,0,0.036,0.0395,0.0455,0.0534,0.0618,0.0668,0.0762,0.08,0.0841,0.0841,0.0838,0.0754,0.0582,0.0515,0.0395,0.0364,0.021,0.0217,0.0147,0.0058,0.0062,0.0096,0,0,0,0,0,0,0.0369,0.0422,0.0452,0.0559,0.0619,0.0722,0.0781,0.0811,0.0815,0.0826,0.0745,0.0703,0.0548,0.0649,0.0385,0.0351,0.0285,0.0143,0.014,0.0057,0.006,0.0062,0.0099,0,0,0,0,0]}]]